Downstream station:
SHEF ID: ENWK1 CROOKED C NR ENGLEWOOD, KS
STATION TYPE:
Regulating: Stage = 6.50, Flow = 243
PRECIP STAGE RIV-FLOW BAT-LOAD
in ft cfs volt
Ccp-Rev Ccp-Rev Ccp-Rev Ccp-Rev
(US/Central)
12/21 00:00 0.00 2.43 3 12.89
12/21 01:00 0.00 2.43 3 12.83
12/21 02:00 0.00 2.43 3 12.77
12/21 03:00 0.00 2.46 4 12.71
12/21 04:00 0.00 2.57 5 12.71
12/21 05:00 0.00 2.67 7 12.65
12/21 06:00 0.00 2.71 7 12.65
12/21 07:00 0.00 2.75 8 12.60
12/21 08:00 0.00 2.78 9 12.54
12/21 09:00 0.00 2.79 9 12.83
12/21 10:00 0.00 2.75 8 14.30
12/21 11:00 0.00 2.42 3 14.30
12/21 12:00 0.00 2.38 3 14.59
12/21 13:00 0.00 2.37 3 14.30
12/21 14:00 0.00 2.38 3 14.06
12/21 15:00 0.00 2.41 3 14.06
12/21 16:00 0.00 2.44 4 14.12
12/21 17:00 0.00 2.46 4 14.00
12/21 18:00 0.00 2.46 4 13.53
12/21 19:00 0.00 2.45 4 13.12
12/21 20:00 0.00 2.45 4 13.00
12/21 21:00 0.00 2.44 4 12.95
12/21 22:00 0.00 2.44 4 12.89
12/21 23:00 ---- ---- ---- ----